N10W KTRM-KSBP

Flight info

Callsign N10W
Flight time 1h 25m
Altitude 16000
Route MECCA1 PSP V386 PMD RZS
Aircraft B58T/L-SDFGRY/C

Departure

Time 2026-04-20 00:48
Airport Jacqueline Cochran Regional Airport (KTRM)

Arrival

Time 2026-04-20 02:14
Airport San Luis County Regional Airport (KSBP)
Time Latitude Longitude Altitude Speed Heading
2026-04-20 00:11 33.63792 -116.15874 -126 ft 0 kts 267°
2026-04-20 00:42 33.63792 -116.15875 -125 ft 0 kts 266°
2026-04-20 00:42 33.63782 -116.15879 -123 ft 4 kts 133°
2026-04-20 00:42 33.63800 -116.15859 -122 ft 4 kts 19°
2026-04-20 00:42 33.63821 -116.15851 -122 ft 3 kts 17°
2026-04-20 00:43 33.63839 -116.15845 -120 ft 2 kts 14°
2026-04-20 00:43 33.63847 -116.15843 -119 ft 1 kts 11°
2026-04-20 00:43 33.63854 -116.15840 -119 ft 3 kts 30°
2026-04-20 00:43 33.63890 -116.15802 -119 ft 7 kts 53°
2026-04-20 00:44 33.63912 -116.15776 -119 ft 3 kts 43°
2026-04-20 00:44 33.63915 -116.15771 -119 ft 0 kts 53°
2026-04-20 00:47 33.63907 -116.15743 -121 ft 8 kts 123°
2026-04-20 00:47 33.63906 -116.15673 -122 ft 9 kts 104°
2026-04-20 00:47 33.63853 -116.15641 -123 ft 10 kts 178°
2026-04-20 00:48 33.63754 -116.15642 -124 ft 25 kts 180°
2026-04-20 00:48 33.63290 -116.15640 -134 ft 108 kts 179°
2026-04-20 00:48 33.62409 -116.15633 108 ft 134 kts 174°
2026-04-20 00:48 33.61460 -116.15521 547 ft 139 kts 159°
2026-04-20 00:49 33.60634 -116.14933 928 ft 140 kts 136°
2026-04-20 00:49 33.59926 -116.14105 1289 ft 146 kts 139°
2026-04-20 00:49 33.59093 -116.13369 1674 ft 149 kts 147°
2026-04-20 00:49 33.58222 -116.12708 2080 ft 152 kts 149°
2026-04-20 00:50 33.57334 -116.12033 2547 ft 150 kts 153°
2026-04-20 00:50 33.56427 -116.11409 2984 ft 154 kts 153°
2026-04-20 00:50 33.55485 -116.10736 3321 ft 162 kts 151°
2026-04-20 00:50 33.54502 -116.10045 3678 ft 164 kts 153°
2026-04-20 00:51 33.53527 -116.09337 3982 ft 167 kts 147°
2026-04-20 00:51 33.52877 -116.08170 4223 ft 176 kts 102°
2026-04-20 00:51 33.53106 -116.06744 4472 ft 180 kts 56°
2026-04-20 00:51 33.54076 -116.05901 4721 ft 176 kts 11°
2026-04-20 00:52 33.55240 -116.06087 4969 ft 170 kts 326°
2026-04-20 00:52 33.56061 -116.07079 5224 ft 167 kts 306°
2026-04-20 00:52 33.56809 -116.08158 5483 ft 169 kts 308°
2026-04-20 00:52 33.57598 -116.09215 5734 ft 171 kts 310°
2026-04-20 00:53 33.58408 -116.10271 5987 ft 173 kts 310°
2026-04-20 00:53 33.59227 -116.11341 6238 ft 174 kts 310°
2026-04-20 00:53 33.60042 -116.12406 6480 ft 176 kts 309°
2026-04-20 00:53 33.60879 -116.13499 6709 ft 180 kts 309°
2026-04-20 00:54 33.61736 -116.14617 6935 ft 183 kts 310°
2026-04-20 00:54 33.62312 -116.15371 7010 ft 190 kts 309°
2026-04-20 00:54 33.63268 -116.16537 7021 ft 201 kts 315°
2026-04-20 00:54 33.64324 -116.17690 7029 ft 208 kts 315°
2026-04-20 00:55 33.65397 -116.18885 7029 ft 212 kts 315°
2026-04-20 00:55 33.66480 -116.20094 7031 ft 214 kts 315°
2026-04-20 00:55 33.67575 -116.21311 7028 ft 215 kts 315°
2026-04-20 00:55 33.68668 -116.22526 7028 ft 216 kts 315°
2026-04-20 00:56 33.69786 -116.23770 7026 ft 216 kts 315°
2026-04-20 00:56 33.70877 -116.24984 7030 ft 216 kts 315°
2026-04-20 00:56 33.71985 -116.26213 7028 ft 216 kts 316°
2026-04-20 00:56 33.73080 -116.27432 7028 ft 213 kts 316°
2026-04-20 00:57 33.74161 -116.28639 7028 ft 211 kts 316°
2026-04-20 00:57 33.75239 -116.29840 7030 ft 210 kts 316°
2026-04-20 00:57 33.76310 -116.31034 7029 ft 210 kts 316°
2026-04-20 00:57 33.77379 -116.32226 7029 ft 209 kts 316°
2026-04-20 00:58 33.78422 -116.33391 7174 ft 202 kts 316°
2026-04-20 00:58 33.79436 -116.34522 7408 ft 196 kts 315°
2026-04-20 00:58 33.80436 -116.35640 7637 ft 196 kts 314°
2026-04-20 00:58 33.81439 -116.36759 7870 ft 197 kts 315°
2026-04-20 00:59 33.82442 -116.37881 8117 ft 197 kts 315°
2026-04-20 00:59 33.83451 -116.39007 8361 ft 198 kts 315°
2026-04-20 00:59 33.84470 -116.40145 8609 ft 198 kts 315°
2026-04-20 00:59 33.85468 -116.41262 8854 ft 194 kts 315°
2026-04-20 01:00 33.86441 -116.42349 9094 ft 192 kts 316°
2026-04-20 01:00 33.87564 -116.43201 9334 ft 192 kts 341°
2026-04-20 01:00 33.88834 -116.43684 9584 ft 191 kts 343°
2026-04-20 01:00 33.90095 -116.44182 9829 ft 190 kts 343°
2026-04-20 01:01 33.91356 -116.44677 10063 ft 191 kts 343°
2026-04-20 01:01 33.92623 -116.45170 10298 ft 192 kts 343°
2026-04-20 01:01 33.93902 -116.45668 10537 ft 193 kts 342°
2026-04-20 01:01 33.95178 -116.46167 10805 ft 191 kts 342°
2026-04-20 01:02 33.96391 -116.46641 11246 ft 180 kts 342°
2026-04-20 01:02 33.97551 -116.47095 11713 ft 171 kts 342°
2026-04-20 01:02 33.98658 -116.47527 12187 ft 164 kts 342°
2026-04-20 01:02 33.99718 -116.47942 12664 ft 156 kts 341°
2026-04-20 01:03 34.00739 -116.48342 13149 ft 152 kts 341°
2026-04-20 01:03 34.01730 -116.48729 13638 ft 147 kts 340°
2026-04-20 01:03 34.02692 -116.49105 14081 ft 143 kts 340°
2026-04-20 01:03 34.03661 -116.49482 14353 ft 153 kts 341°
2026-04-20 01:04 34.04706 -116.49892 14608 ft 163 kts 340°
2026-04-20 01:04 34.05812 -116.50323 14870 ft 171 kts 341°
2026-04-20 01:04 34.06965 -116.50774 15143 ft 177 kts 341°
2026-04-20 01:04 34.08158 -116.51241 15407 ft 183 kts 340°
2026-04-20 01:05 34.09386 -116.51722 15671 ft 187 kts 340°
2026-04-20 01:05 34.10644 -116.52215 15937 ft 191 kts 340°
2026-04-20 01:05 34.11949 -116.52726 16040 ft 204 kts 340°
2026-04-20 01:05 34.13347 -116.53274 16048 ft 218 kts 341°
2026-04-20 01:06 34.14815 -116.53849 16050 ft 226 kts 341°
2026-04-20 01:06 34.16334 -116.54444 16051 ft 231 kts 341°
2026-04-20 01:06 34.17879 -116.55050 16050 ft 235 kts 341°
2026-04-20 01:06 34.19425 -116.55657 16049 ft 237 kts 341°
2026-04-20 01:07 34.21006 -116.56278 16052 ft 239 kts 341°
2026-04-20 01:07 34.22594 -116.56902 16053 ft 241 kts 341°
2026-04-20 01:07 34.24195 -116.57531 16051 ft 242 kts 341°
2026-04-20 01:07 34.25785 -116.58156 16053 ft 243 kts 341°
2026-04-20 01:08 34.27414 -116.58797 16052 ft 243 kts 341°
2026-04-20 01:08 34.29022 -116.59430 16052 ft 243 kts 341°
2026-04-20 01:08 34.30630 -116.60063 16051 ft 243 kts 341°
2026-04-20 01:08 34.32218 -116.60689 16052 ft 243 kts 341°
2026-04-20 01:09 34.33826 -116.61321 16056 ft 242 kts 341°
2026-04-20 01:09 34.35431 -116.61954 16056 ft 243 kts 341°
2026-04-20 01:09 34.37039 -116.62589 16056 ft 243 kts 341°
2026-04-20 01:09 34.38642 -116.63221 16061 ft 243 kts 341°
2026-04-20 01:10 34.40256 -116.63858 16060 ft 243 kts 341°
2026-04-20 01:10 34.43416 -116.65104 16053 ft 232 kts 341°
2026-04-20 01:10 34.44928 -116.65703 16042 ft 224 kts 341°
2026-04-20 01:11 34.46396 -116.66284 16031 ft 219 kts 341°
2026-04-20 01:11 34.47812 -116.66846 16033 ft 215 kts 339°
2026-04-20 01:11 34.49112 -116.67721 16033 ft 210 kts 317°
2026-04-20 01:11 34.50039 -116.69023 16032 ft 204 kts 297°
2026-04-20 01:12 34.50555 -116.70604 16033 ft 198 kts 277°
2026-04-20 01:12 34.50727 -116.72250 16033 ft 196 kts 272°
2026-04-20 01:12 34.50893 -116.73885 16034 ft 195 kts 272°
2026-04-20 01:12 34.51053 -116.75496 16047 ft 195 kts 272°
2026-04-20 01:13 34.51212 -116.77132 16046 ft 195 kts 272°
2026-04-20 01:13 34.51370 -116.78760 16046 ft 195 kts 272°
2026-04-20 01:13 34.51530 -116.80395 16046 ft 195 kts 272°
2026-04-20 01:13 34.51688 -116.82026 16046 ft 195 kts 272°
2026-04-20 01:14 34.51847 -116.83656 16033 ft 195 kts 272°
2026-04-20 01:14 34.52006 -116.85289 16035 ft 195 kts 272°
2026-04-20 01:14 34.52164 -116.86922 16035 ft 195 kts 272°
2026-04-20 01:14 34.52320 -116.88530 16059 ft 194 kts 271°
2026-04-20 01:15 34.52476 -116.90152 16061 ft 194 kts 271°
2026-04-20 01:15 34.52634 -116.91795 16064 ft 197 kts 271°
2026-04-20 01:15 34.52794 -116.93456 16068 ft 199 kts 271°
2026-04-20 01:15 34.52957 -116.95135 16068 ft 201 kts 271°
2026-04-20 01:16 34.53119 -116.96821 16067 ft 202 kts 271°
2026-04-20 01:16 34.53282 -116.98522 16067 ft 204 kts 271°
2026-04-20 01:16 34.53446 -117.00231 16077 ft 204 kts 271°
2026-04-20 01:16 34.53610 -117.01943 16078 ft 204 kts 271°
2026-04-20 01:17 34.53774 -117.03654 16073 ft 204 kts 271°
2026-04-20 01:17 34.53937 -117.05366 16074 ft 204 kts 271°
2026-04-20 01:17 34.54097 -117.07057 16074 ft 204 kts 271°
2026-04-20 01:17 34.54260 -117.08766 16074 ft 204 kts 271°
2026-04-20 01:18 34.54423 -117.10482 16067 ft 205 kts 271°
2026-04-20 01:18 34.54586 -117.12197 16068 ft 205 kts 271°
2026-04-20 01:18 34.54749 -117.13912 16068 ft 205 kts 270°
2026-04-20 01:18 34.54911 -117.15627 16069 ft 205 kts 270°
2026-04-20 01:19 34.55073 -117.17348 16077 ft 205 kts 270°
2026-04-20 01:19 34.55235 -117.19066 16146 ft 205 kts 270°
2026-04-20 01:19 34.55395 -117.20780 16152 ft 204 kts 270°
2026-04-20 01:19 34.55555 -117.22475 16157 ft 204 kts 270°
2026-04-20 01:20 34.55718 -117.24184 16164 ft 204 kts 270°
2026-04-20 01:20 34.55877 -117.25898 16169 ft 204 kts 270°
2026-04-20 01:20 34.56038 -117.27609 16173 ft 204 kts 270°
2026-04-20 01:20 34.56195 -117.29319 16176 ft 204 kts 270°
2026-04-20 01:21 34.56353 -117.31027 16175 ft 204 kts 270°
2026-04-20 01:21 34.56515 -117.32737 16175 ft 203 kts 270°
2026-04-20 01:21 34.56673 -117.34438 16175 ft 203 kts 270°
2026-04-20 01:21 34.56831 -117.36145 16175 ft 203 kts 270°
2026-04-20 01:22 34.56988 -117.37847 16175 ft 203 kts 270°
2026-04-20 01:22 34.57145 -117.39528 16173 ft 203 kts 270°
2026-04-20 01:22 34.57302 -117.41229 16173 ft 202 kts 270°
2026-04-20 01:22 34.57459 -117.42929 16174 ft 202 kts 270°
2026-04-20 01:23 34.57614 -117.44621 16176 ft 202 kts 270°
2026-04-20 01:23 34.57771 -117.46322 16176 ft 202 kts 270°
2026-04-20 01:23 34.57924 -117.48002 16181 ft 203 kts 270°
2026-04-20 01:23 34.58081 -117.49707 16177 ft 203 kts 270°
2026-04-20 01:24 34.58236 -117.51410 16167 ft 202 kts 270°
2026-04-20 01:24 34.58391 -117.53108 16162 ft 202 kts 270°
2026-04-20 01:24 34.58546 -117.54801 16157 ft 202 kts 270°
2026-04-20 01:24 34.58701 -117.56501 16154 ft 202 kts 270°
2026-04-20 01:25 34.58856 -117.58195 16145 ft 202 kts 270°
2026-04-20 01:25 34.59010 -117.59891 16142 ft 202 kts 270°
2026-04-20 01:25 34.59164 -117.61586 16137 ft 202 kts 270°
2026-04-20 01:25 34.59317 -117.63285 16131 ft 202 kts 270°
2026-04-20 01:26 34.59471 -117.64981 16126 ft 202 kts 270°
2026-04-20 01:26 34.59624 -117.66676 16118 ft 202 kts 270°
2026-04-20 01:26 34.59775 -117.68354 16109 ft 202 kts 270°
2026-04-20 01:26 34.59928 -117.70049 16103 ft 202 kts 270°
2026-04-20 01:27 34.60080 -117.71748 16102 ft 202 kts 270°
2026-04-20 01:27 34.60232 -117.73443 16096 ft 202 kts 270°
2026-04-20 01:27 34.60384 -117.75139 16087 ft 202 kts 270°
2026-04-20 01:27 34.60536 -117.76840 16090 ft 202 kts 270°
2026-04-20 01:28 34.60688 -117.78539 16097 ft 202 kts 270°
2026-04-20 01:28 34.60839 -117.80234 16099 ft 202 kts 270°
2026-04-20 01:28 34.60988 -117.81904 16102 ft 201 kts 270°
2026-04-20 01:28 34.61138 -117.83589 16108 ft 200 kts 270°
2026-04-20 01:29 34.61287 -117.85277 16109 ft 201 kts 270°
2026-04-20 01:29 34.61436 -117.86965 16117 ft 201 kts 270°
2026-04-20 01:29 34.61586 -117.88651 16114 ft 201 kts 270°
2026-04-20 01:29 34.61735 -117.90340 16118 ft 201 kts 270°
2026-04-20 01:30 34.61884 -117.92031 16125 ft 201 kts 270°
2026-04-20 01:30 34.62030 -117.93698 16121 ft 201 kts 270°
2026-04-20 01:30 34.62179 -117.95387 16124 ft 201 kts 270°
2026-04-20 01:30 34.62328 -117.97082 16126 ft 201 kts 270°
2026-04-20 01:31 34.62476 -117.98773 16128 ft 201 kts 270°
2026-04-20 01:31 34.62624 -118.00462 16128 ft 201 kts 270°
2026-04-20 01:31 34.62771 -118.02152 16128 ft 201 kts 270°
2026-04-20 01:31 34.62917 -118.03814 16128 ft 201 kts 270°
2026-04-20 01:32 34.63064 -118.05499 16139 ft 201 kts 270°
2026-04-20 01:32 34.63102 -118.07181 16132 ft 197 kts 259°
2026-04-20 01:32 34.62981 -118.08839 16132 ft 197 kts 259°
2026-04-20 01:32 34.62872 -118.10490 16132 ft 196 kts 260°
2026-04-20 01:33 34.62766 -118.12146 16130 ft 196 kts 259°
2026-04-20 01:33 34.62660 -118.13794 16131 ft 196 kts 259°
2026-04-20 01:33 34.62553 -118.15444 16131 ft 195 kts 259°
2026-04-20 01:33 34.62446 -118.17091 16132 ft 195 kts 259°
2026-04-20 01:34 34.62339 -118.18716 16132 ft 195 kts 259°
2026-04-20 01:34 34.62232 -118.20363 16135 ft 195 kts 259°
2026-04-20 01:34 34.62124 -118.22004 16139 ft 195 kts 259°
2026-04-20 01:34 34.62016 -118.23644 16134 ft 195 kts 259°
2026-04-20 01:35 34.61908 -118.25284 16134 ft 195 kts 259°
2026-04-20 01:35 34.61800 -118.26924 16133 ft 195 kts 259°
2026-04-20 01:35 34.61691 -118.28574 16133 ft 196 kts 259°
2026-04-20 01:35 34.61582 -118.30223 16131 ft 196 kts 259°
2026-04-20 01:36 34.61473 -118.31869 16134 ft 196 kts 259°
2026-04-20 01:36 34.61364 -118.33519 16133 ft 196 kts 259°
2026-04-20 01:36 34.61253 -118.35169 16133 ft 196 kts 259°
2026-04-20 01:36 34.61143 -118.36811 16134 ft 196 kts 259°
2026-04-20 01:37 34.61034 -118.38449 16129 ft 197 kts 259°
2026-04-20 01:37 34.60922 -118.40128 16127 ft 196 kts 259°
2026-04-20 01:37 34.60811 -118.41767 16121 ft 194 kts 259°
2026-04-20 01:37 34.60704 -118.43375 16120 ft 193 kts 259°
2026-04-20 01:38 34.60593 -118.45000 16123 ft 193 kts 259°
2026-04-20 01:38 34.60483 -118.46630 16131 ft 194 kts 259°
2026-04-20 01:38 34.60371 -118.48271 16126 ft 195 kts 259°
2026-04-20 01:38 34.60261 -118.49916 16125 ft 195 kts 259°
2026-04-20 01:39 34.60149 -118.51557 16125 ft 196 kts 259°
2026-04-20 01:39 34.60036 -118.53214 16121 ft 196 kts 260°
2026-04-20 01:39 34.59923 -118.54865 16123 ft 195 kts 259°
2026-04-20 01:39 34.59811 -118.56502 16121 ft 195 kts 259°
2026-04-20 01:40 34.59700 -118.58133 16119 ft 195 kts 259°
2026-04-20 01:40 34.59587 -118.59786 16122 ft 196 kts 259°
2026-04-20 01:40 34.59473 -118.61422 16122 ft 197 kts 260°
2026-04-20 01:40 34.59359 -118.63078 16124 ft 197 kts 259°
2026-04-20 01:41 34.59244 -118.64741 16120 ft 197 kts 259°
2026-04-20 01:41 34.59128 -118.66413 16130 ft 198 kts 259°
2026-04-20 01:41 34.59053 -118.67516 16126 ft 198 kts 260°
2026-04-20 01:41 34.58937 -118.69177 16124 ft 197 kts 260°
2026-04-20 01:42 34.58822 -118.70828 16124 ft 196 kts 260°
2026-04-20 01:42 34.58669 -118.73013 16121 ft 196 kts 260°
2026-04-20 01:42 34.58591 -118.74127 16125 ft 196 kts 260°
2026-04-20 01:42 34.58475 -118.75781 16124 ft 197 kts 260°
2026-04-20 01:43 34.58361 -118.77432 16115 ft 195 kts 260°
2026-04-20 01:43 34.58246 -118.79069 16129 ft 194 kts 260°
2026-04-20 01:43 34.58131 -118.80686 16131 ft 195 kts 259°
2026-04-20 01:43 34.58015 -118.82329 16131 ft 195 kts 259°
2026-04-20 01:44 34.57898 -118.83973 16134 ft 195 kts 259°
2026-04-20 01:44 34.57783 -118.85621 16133 ft 196 kts 259°
2026-04-20 01:44 34.57665 -118.87273 16133 ft 197 kts 259°
2026-04-20 01:44 34.57547 -118.88935 16134 ft 198 kts 259°
2026-04-20 01:45 34.57429 -118.90597 16141 ft 197 kts 259°
2026-04-20 01:45 34.57312 -118.92254 16140 ft 197 kts 259°
2026-04-20 01:45 34.57170 -118.93898 16128 ft 192 kts 254°
2026-04-20 01:45 34.57016 -118.95482 16137 ft 193 kts 263°
2026-04-20 01:46 34.57396 -118.97077 16136 ft 208 kts 299°
2026-04-20 01:46 34.58561 -118.98160 16140 ft 220 kts 336°
2026-04-20 01:46 34.60062 -118.98590 16140 ft 222 kts 347°
2026-04-20 01:46 34.61589 -118.98917 16141 ft 223 kts 347°
2026-04-20 01:47 34.63131 -118.99238 16128 ft 227 kts 347°
2026-04-20 01:47 34.64720 -118.99570 16132 ft 237 kts 347°
2026-04-20 01:47 34.66372 -118.99915 16135 ft 244 kts 348°
2026-04-20 01:47 34.68064 -119.00268 16133 ft 249 kts 348°
2026-04-20 01:48 34.69788 -119.00629 16128 ft 252 kts 347°
2026-04-20 01:48 34.71522 -119.00979 16116 ft 254 kts 348°
2026-04-20 01:48 34.73251 -119.01343 16117 ft 256 kts 347°
2026-04-20 01:48 34.75015 -119.01721 16116 ft 257 kts 347°
2026-04-20 01:49 34.76785 -119.02096 16119 ft 258 kts 348°
2026-04-20 01:49 34.78558 -119.02471 16119 ft 258 kts 348°
2026-04-20 01:49 34.80325 -119.02842 16098 ft 258 kts 348°
2026-04-20 01:49 34.82074 -119.03208 16099 ft 258 kts 348°
2026-04-20 01:50 34.83853 -119.03580 16100 ft 258 kts 348°
2026-04-20 01:50 34.85627 -119.03953 16094 ft 259 kts 348°
2026-04-20 01:50 34.87399 -119.04319 16094 ft 257 kts 348°
2026-04-20 01:50 34.89166 -119.04683 16094 ft 258 kts 348°
2026-04-20 01:51 34.90940 -119.05059 16096 ft 257 kts 348°
2026-04-20 01:51 34.92668 -119.05586 16090 ft 254 kts 331°
2026-04-20 01:51 34.93962 -119.06918 16082 ft 245 kts 299°
2026-04-20 01:51 34.94496 -119.08818 16082 ft 234 kts 268°
2026-04-20 01:52 34.94153 -119.10693 16086 ft 224 kts 241°
2026-04-20 01:52 34.93285 -119.12241 16092 ft 220 kts 223°
2026-04-20 01:52 34.92299 -119.13651 16097 ft 223 kts 239°
2026-04-20 01:52 34.92043 -119.15530 16098 ft 234 kts 272°
2026-04-20 01:53 34.92600 -119.17431 16102 ft 242 kts 291°
2026-04-20 01:53 34.93285 -119.19274 16081 ft 239 kts 285°
2026-04-20 01:53 34.93752 -119.21203 16083 ft 236 kts 278°
2026-04-20 01:53 34.94124 -119.23148 16081 ft 235 kts 278°
2026-04-20 01:54 34.94529 -119.25084 16066 ft 237 kts 279°
2026-04-20 01:54 34.94958 -119.27030 16046 ft 237 kts 279°
2026-04-20 01:54 34.95382 -119.28976 16047 ft 236 kts 279°
2026-04-20 01:54 34.95794 -119.30886 16047 ft 235 kts 279°
2026-04-20 01:55 34.96210 -119.32822 16043 ft 236 kts 279°
2026-04-20 01:55 34.96626 -119.34754 16045 ft 236 kts 279°
2026-04-20 01:55 34.97042 -119.36687 16048 ft 236 kts 279°
2026-04-20 01:55 34.97457 -119.38619 16032 ft 235 kts 279°
2026-04-20 01:56 34.97873 -119.40552 16031 ft 235 kts 279°
2026-04-20 01:56 34.98287 -119.42479 16032 ft 235 kts 279°
2026-04-20 01:56 34.98701 -119.44412 16033 ft 235 kts 279°
2026-04-20 01:56 34.99110 -119.46320 16033 ft 235 kts 279°
2026-04-20 01:57 34.99525 -119.48258 16046 ft 235 kts 279°
2026-04-20 01:57 34.99940 -119.50198 16048 ft 236 kts 279°
2026-04-20 01:57 35.00349 -119.52113 16033 ft 237 kts 279°
2026-04-20 01:57 35.00771 -119.54094 15808 ft 245 kts 279°
2026-04-20 01:58 35.01209 -119.56129 15547 ft 250 kts 280°
2026-04-20 01:58 35.01650 -119.58193 15301 ft 253 kts 279°
2026-04-20 01:58 35.02090 -119.60261 15088 ft 255 kts 280°
2026-04-20 01:58 35.02537 -119.62367 14851 ft 257 kts 279°
2026-04-20 01:59 35.02987 -119.64480 14614 ft 258 kts 280°
2026-04-20 01:59 35.03437 -119.66598 14385 ft 258 kts 279°
2026-04-20 01:59 35.03885 -119.68710 14152 ft 257 kts 279°
2026-04-20 01:59 35.04333 -119.70820 13917 ft 256 kts 279°
2026-04-20 02:00 35.04778 -119.72920 13694 ft 255 kts 279°
2026-04-20 02:00 35.05221 -119.75015 13424 ft 254 kts 279°
2026-04-20 02:00 35.05662 -119.77102 13090 ft 254 kts 279°
2026-04-20 02:00 35.06099 -119.79173 12714 ft 257 kts 279°
2026-04-20 02:01 35.06547 -119.81295 12337 ft 260 kts 279°
2026-04-20 02:01 35.07000 -119.83442 11980 ft 261 kts 280°
2026-04-20 02:01 35.07452 -119.85587 11609 ft 260 kts 280°
2026-04-20 02:01 35.07905 -119.87732 11244 ft 260 kts 280°
2026-04-20 02:02 35.08351 -119.89868 10885 ft 259 kts 279°
2026-04-20 02:02 35.08799 -119.91996 10524 ft 258 kts 279°
2026-04-20 02:02 35.09246 -119.94113 10074 ft 255 kts 279°
2026-04-20 02:02 35.09682 -119.96193 9596 ft 251 kts 279°
2026-04-20 02:03 35.10110 -119.98245 9079 ft 248 kts 279°
2026-04-20 02:03 35.10537 -120.00285 8531 ft 248 kts 279°
2026-04-20 02:03 35.10965 -120.02324 8033 ft 247 kts 280°
2026-04-20 02:03 35.11379 -120.04318 7550 ft 245 kts 279°
2026-04-20 02:04 35.11800 -120.06338 7071 ft 245 kts 279°
2026-04-20 02:04 35.12221 -120.08359 6597 ft 246 kts 280°
2026-04-20 02:04 35.12644 -120.10374 6117 ft 244 kts 281°
2026-04-20 02:04 35.13053 -120.12333 6000 ft 228 kts 280°
2026-04-20 02:05 35.13432 -120.14147 5991 ft 214 kts 280°
2026-04-20 02:05 35.13788 -120.15874 5995 ft 206 kts 279°
2026-04-20 02:05 35.14134 -120.17552 6000 ft 202 kts 279°
2026-04-20 02:05 35.14472 -120.19203 6005 ft 200 kts 279°
2026-04-20 02:06 35.14814 -120.20852 6003 ft 200 kts 279°
2026-04-20 02:06 35.15155 -120.22507 5885 ft 205 kts 279°
2026-04-20 02:06 35.15516 -120.24248 5407 ft 217 kts 280°
2026-04-20 02:06 35.15897 -120.26066 4926 ft 223 kts 280°
2026-04-20 02:07 35.16277 -120.27899 4527 ft 219 kts 279°
2026-04-20 02:07 35.16642 -120.29639 4519 ft 204 kts 279°
2026-04-20 02:07 35.16975 -120.31268 4517 ft 197 kts 278°
2026-04-20 02:07 35.17306 -120.32883 4511 ft 194 kts 278°
2026-04-20 02:08 35.17633 -120.34474 4514 ft 191 kts 278°
2026-04-20 02:08 35.17957 -120.36049 4511 ft 190 kts 278°
2026-04-20 02:08 35.18278 -120.37614 4514 ft 189 kts 278°
2026-04-20 02:08 35.18599 -120.39172 4518 ft 188 kts 278°
2026-04-20 02:09 35.18917 -120.40718 4511 ft 186 kts 279°
2026-04-20 02:09 35.19230 -120.42243 4511 ft 184 kts 279°
2026-04-20 02:09 35.19537 -120.43743 4520 ft 182 kts 279°
2026-04-20 02:09 35.19847 -120.45252 4518 ft 182 kts 278°
2026-04-20 02:10 35.20153 -120.46746 4522 ft 181 kts 278°
2026-04-20 02:10 35.20460 -120.48242 4518 ft 182 kts 278°
2026-04-20 02:10 35.20665 -120.49764 4357 ft 188 kts 268°
2026-04-20 02:10 35.20657 -120.51429 4010 ft 197 kts 263°
2026-04-20 02:11 35.20618 -120.53087 3575 ft 197 kts 264°
2026-04-20 02:11 35.20614 -120.54766 3053 ft 192 kts 266°
2026-04-20 02:11 35.20629 -120.56331 2458 ft 174 kts 269°
2026-04-20 02:11 35.20704 -120.57733 1764 ft 156 kts 275°
2026-04-20 02:12 35.20927 -120.58954 1171 ft 139 kts 287°
2026-04-20 02:12 35.21329 -120.59958 849 ft 123 kts 302°
2026-04-20 02:12 35.21815 -120.60774 681 ft 117 kts 306°
2026-04-20 02:12 35.22289 -120.61565 569 ft 115 kts 304°
2026-04-20 02:13 35.22741 -120.62364 422 ft 109 kts 302°
2026-04-20 02:13 35.23153 -120.63082 281 ft 97 kts 302°
2026-04-20 02:13 35.23500 -120.63694 199 ft 77 kts 302°
2026-04-20 02:13 35.23756 -120.64149 197 ft 56 kts 305°
2026-04-20 02:14 35.23919 -120.64438 179 ft 22 kts 298°
2026-04-20 02:14 35.24007 -120.64576 174 ft 20 kts 303°
2026-04-20 02:14 35.24088 -120.64698 170 ft 15 kts 323°
2026-04-20 02:14 35.24153 -120.64665 170 ft 10 kts 81°
2026-04-20 02:15 35.24121 -120.64592 171 ft 12 kts 126°
2026-04-20 02:15 35.24061 -120.64487 174 ft 17 kts 127°
2026-04-20 02:15 35.23998 -120.64378 178 ft 15 kts 124°
2026-04-20 02:15 35.23939 -120.64274 180 ft 14 kts 128°
2026-04-20 02:16 35.23880 -120.64191 191 ft 11 kts 126°
2026-04-20 02:16 35.23839 -120.64119 189 ft 10 kts 124°
2026-04-20 02:16 35.23800 -120.64049 196 ft 11 kts 124°
2026-04-20 02:16 35.23761 -120.63963 195 ft 11 kts 125°
2026-04-20 02:17 35.23711 -120.63873 197 ft 14 kts 125°
2026-04-20 02:17 35.23646 -120.63760 197 ft 17 kts 122°
2026-04-20 02:17 35.23601 -120.63661 202 ft 8 kts 82°
2026-04-20 02:17 35.23647 -120.63651 210 ft 8 kts 347°
2026-04-20 02:18 35.23659 -120.63655 202 ft 0 kts 347°